| time (UTC) | temp F | wind direction | speed MPH | gust MPH | rain 1hr in | rain 24hr in | rain mn in | humidity % | barometer mb |
| 20260502164034 | 46 | 238 | 0.0 | 0.0 | 0.00 | 0.00 | 0.00 | 54 | 1013.9 |
| 20260502163534 | 46 | 279 | 0.0 | 0.0 | 0.00 | 0.00 | 0.00 | 54 | 1014.0 |
| 20260502163046 | 45 | 264 | 0.0 | 0.0 | 0.00 | 0.00 | 0.00 | 54 | 1014.1 |
| 20260502162536 | 46 | 276 | 0.0 | 0.0 | 0.00 | 0.00 | 0.00 | 54 | 1014.1 |
| 20260502162035 | 46 | 302 | 0.0 | 0.0 | 0.00 | 0.00 | 0.00 | 56 | 1014.1 |
| 20260502161534 | 44 | 331 | 0.0 | 0.0 | 0.00 | 0.00 | 0.00 | 56 | 1014.1 |
| 20260502161033 | 45 | 280 | 0.0 | 0.0 | 0.00 | 0.00 | 0.00 | 55 | 1014.1 |
| 20260502160533 | 45 | 254 | 0.0 | 0.0 | 0.00 | 0.00 | 0.00 | 54 | 1014.1 |
| 20260502152030 | 45 | 254 | 0.0 | 0.0 | 0.00 | 0.00 | 0.00 | 53 | 1014.0 |
| 20260502151546 | 45 | 261 | 0.0 | 0.0 | 0.00 | 0.00 | 0.00 | 53 | 1014.1 |
| 20260502151029 | 45 | 275 | 0.0 | 0.0 | 0.00 | 0.00 | 0.00 | 51 | 1014.0 |
| 20260502150528 | 45 | 286 | 0.0 | 0.0 | 0.00 | 0.00 | 0.00 | 53 | 1014.1 |
| 20260502130518 | 41 | 295 | 0.0 | 0.0 | 0.00 | 0.00 | 0.00 | 66 | 1014.6 |
| 20260502123515 | 40 | 271 | 0.0 | 0.0 | 0.00 | 0.00 | 0.00 | 70 | 1014.6 |
| 20260502123024 | 40 | 313 | 0.0 | 0.0 | 0.00 | 0.00 | 0.00 | 71 | 1014.7 |
| 20260502122516 | 39 | 270 | 0.0 | 0.0 | 0.00 | 0.00 | 0.00 | 72 | 1014.7 |
| 20260502122014 | 39 | 262 | 0.0 | 0.0 | 0.00 | 0.00 | 0.00 | 73 | 1014.7 |
| 20260502121514 | 39 | 240 | 0.0 | 0.0 | 0.00 | 0.00 | 0.00 | 73 | 1014.6 |
| 20260502121014 | 39 | 263 | 0.0 | 0.0 | 0.00 | 0.00 | 0.00 | 74 | 1014.5 |
| 20260502120517 | 39 | 244 | 0.0 | 0.0 | 0.00 | 0.00 | 0.00 | 74 | 1014.6 |
| 20260502115513 | 38 | 261 | 0.0 | 0.0 | 0.00 | 0.00 | 0.00 | 75 | 1014.6 |
| 20260502115013 | 38 | 231 | 0.0 | 0.0 | 0.00 | 0.00 | 0.00 | 76 | 1014.6 |
| 20260502114514 | 37 | 230 | 0.0 | 0.0 | 0.00 | 0.00 | 0.00 | 77 | 1014.6 |
| 20260502114013 | 37 | 258 | 0.0 | 0.0 | 0.00 | 0.00 | 0.00 | 78 | 1014.7 |
| 20260502113516 | 37 | 184 | 0.0 | 0.0 | 0.00 | 0.00 | 0.00 | 79 | 1014.7 |
| 20260502113011 | 37 | 185 | 0.0 | 0.0 | 0.00 | 0.00 | 0.00 | 80 | 1014.7 |
| 20260502112512 | 36 | 184 | 0.0 | 0.0 | 0.00 | 0.00 | 0.00 | 81 | 1014.6 |
| 20260502112011 | 36 | 170 | 0.0 | 0.0 | 0.00 | 0.00 | 0.00 | 82 | 1014.7 |
| 20260502111512 | 35 | 170 | 0.0 | 0.0 | 0.00 | 0.00 | 0.00 | 82 | 1014.7 |
| 20260502111011 | 35 | 175 | 0.0 | 0.0 | 0.00 | 0.00 | 0.00 | 83 | 1014.6 |
| 20260502110511 | 34 | 181 | 0.0 | 0.0 | 0.00 | 0.00 | 0.00 | 83 | 1014.6 |
| 20260502110018 | 34 | 193 | 0.0 | 0.0 | 0.00 | 0.00 | 0.00 | 83 | 1014.5 |
| 20260502105511 | 34 | 221 | 0.0 | 0.0 | 0.00 | 0.00 | 0.00 | 83 | 1014.5 |
| 20260502105008 | 34 | 259 | 0.0 | 0.0 | 0.00 | 0.00 | 0.00 | 83 | 1014.4 |
| 20260502104508 | 34 | 259 | 0.0 | 0.0 | 0.00 | 0.00 | 0.00 | 83 | 1014.4 |
| 20260502104008 | 34 | 259 | 0.0 | 0.0 | 0.00 | 0.00 | 0.00 | 83 | 1014.3 |
| 20260502103508 | 33 | 259 | 0.0 | 0.0 | 0.00 | 0.00 | 0.00 | 83 | 1014.3 |
| 20260502103007 | 33 | 248 | 0.0 | 0.0 | 0.00 | 0.00 | 0.00 | 84 | 1014.3 |
| 20260502102506 | 33 | 248 | 0.0 | 0.0 | 0.00 | 0.00 | 0.00 | 83 | 1014.2 |
| 20260502102005 | 33 | 248 | 0.0 | 0.0 | 0.00 | 0.00 | 0.00 | 83 | 1014.0 |
| 20260502101505 | 33 | 248 | 0.0 | 0.0 | 0.00 | 0.00 | 0.00 | 83 | 1014.1 |
| 20260502101004 | 33 | 248 | 0.0 | 0.0 | 0.00 | 0.00 | 0.00 | 83 | 1014.0 |
| 20260502100504 | 33 | 248 | 0.0 | 0.0 | 0.00 | 0.00 | 0.00 | 83 | 1014.0 |
| 20260502091502 | 33 | 264 | 0.0 | 0.0 | 0.00 | 0.00 | 0.00 | 82 | 1014.0 |
| 20260502091003 | 33 | 264 | 0.0 | 0.0 | 0.00 | 0.00 | 0.00 | 82 | 1013.8 |
| 20260502090600 | 33 | 264 | 0.0 | 0.0 | 0.00 | 0.00 | 0.00 | 82 | 1013.7 |
| 20260502090132 | 34 | 264 | 0.0 | 0.0 | 0.00 | 0.00 | 0.00 | 82 | 1013.7 |
| 20260502071050 | 36 | 273 | 0.0 | 0.0 | 0.00 | 0.00 | 0.00 | 78 | 1013.3 |
| 20260502070548 | 36 | 256 | 0.0 | 0.0 | 0.00 | 0.00 | 0.00 | 78 | 1013.3 |
| 20260502070051 | 36 | 267 | 0.0 | 0.0 | 0.00 | 0.00 | 0.00 | 78 | 1013.4 |
| 20260502065548 | 36 | 269 | 0.0 | 0.0 | 0.00 | 0.00 | 0.00 | 78 | 1013.5 |
| 20260502065047 | 36 | 257 | 0.0 | 0.0 | 0.00 | 0.00 | 0.00 | 78 | 1013.5 |
| 20260502064553 | 36 | 250 | 0.0 | 0.0 | 0.00 | 0.00 | 0.00 | 78 | 1013.6 |
| 20260502064047 | 36 | 263 | 0.0 | 0.0 | 0.00 | 0.00 | 0.00 | 77 | 1013.5 |
| 20260502063546 | 36 | 263 | 0.0 | 0.0 | 0.00 | 0.00 | 0.00 | 78 | 1013.5 |
| 20260502063046 | 36 | 250 | 0.0 | 0.0 | 0.00 | 0.00 | 0.00 | 77 | 1013.5 |
| 20260502062545 | 36 | 259 | 0.0 | 0.0 | 0.00 | 0.00 | 0.00 | 77 | 1013.6 |
| 20260502062044 | 36 | 259 | 0.0 | 0.0 | 0.00 | 0.00 | 0.00 | 77 | 1013.5 |
| 20260502061548 | 37 | 259 | 0.0 | 0.0 | 0.00 | 0.00 | 0.00 | 76 | 1013.5 |
| 20260502061042 | 37 | 259 | 0.0 | 0.0 | 0.00 | 0.00 | 0.00 | 76 | 1013.6 |
| 20260502060541 | 37 | 259 | 0.0 | 0.0 | 0.00 | 0.00 | 0.00 | 76 | 1013.5 |
| 20260502060041 | 37 | 259 | 0.0 | 0.0 | 0.00 | 0.00 | 0.00 | 75 | 1013.7 |
| 20260502055541 | 37 | 259 | 0.0 | 0.0 | 0.00 | 0.00 | 0.00 | 75 | 1013.7 |
| 20260502055040 | 37 | 259 | 0.0 | 0.0 | 0.00 | 0.00 | 0.00 | 75 | 1013.7 |
| 20260502054539 | 38 | 259 | 0.0 | 0.0 | 0.00 | 0.00 | 0.00 | 75 | 1013.7 |
| 20260502054039 | 38 | 259 | 0.0 | 0.0 | 0.00 | 0.00 | 0.00 | 75 | 1013.7 |
| 20260502053538 | 38 | 259 | 0.0 | 0.0 | 0.00 | 0.00 | 0.00 | 74 | 1013.7 |
| 20260502053037 | 38 | 259 | 0.0 | 0.0 | 0.00 | 0.00 | 0.00 | 74 | 1013.7 |
| 20260502052536 | 38 | 261 | 0.0 | 0.0 | 0.00 | 0.00 | 0.00 | 73 | 1013.7 |
| 20260502052036 | 39 | 268 | 0.0 | 0.0 | 0.00 | 0.00 | 0.00 | 73 | 1013.7 |
| 20260502051534 | 39 | 290 | 0.0 | 0.0 | 0.00 | 0.00 | 0.00 | 72 | 1013.7 |
| 20260502051034 | 39 | 263 | 0.0 | 0.0 | 0.00 | 0.00 | 0.00 | 72 | 1013.5 |
| 20260502050535 | 39 | 258 | 0.0 | 0.0 | 0.00 | 0.00 | 0.00 | 72 | 1013.5 |
| 20260502050032 | 39 | 281 | 0.0 | 0.0 | 0.00 | 0.00 | 0.00 | 71 | 1013.5 |
| 20260502045532 | 39 | 298 | 0.0 | 0.0 | 0.00 | 0.00 | 0.00 | 71 | 1013.4 |
| 20260502045031 | 39 | 257 | 0.0 | 0.0 | 0.00 | 0.00 | 0.00 | 71 | 1013.3 |
| 20260502044530 | 39 | 259 | 0.0 | 0.0 | 0.00 | 0.00 | 0.00 | 71 | 1013.2 |
| 20260502044029 | 40 | 280 | 0.0 | 0.0 | 0.00 | 0.00 | 0.00 | 70 | 1013.2 |
| 20260502043529 | 40 | 290 | 0.0 | 0.0 | 0.00 | 0.00 | 0.00 | 70 | 1012.9 |
| 20260502043027 | 40 | 323 | 0.0 | 0.0 | 0.00 | 0.00 | 0.00 | 70 | 1012.9 |
| 20260502042525 | 40 | 298 | 0.0 | 0.0 | 0.00 | 0.00 | 0.00 | 69 | 1012.8 |
| 20260502042024 | 41 | 288 | 0.0 | 0.0 | 0.00 | 0.00 | 0.00 | 69 | 1012.7 |
| 20260502041529 | 41 | 289 | 0.0 | 0.0 | 0.00 | 0.00 | 0.00 | 68 | 1012.7 |
| 20260502041022 | 41 | 326 | 0.0 | 0.0 | 0.00 | 0.00 | 0.00 | 68 | 1012.7 |
| 20260502040523 | 42 | 314 | 0.0 | 0.0 | 0.00 | 0.00 | 0.00 | 69 | 1012.7 |
| 20260502040021 | 42 | 274 | 0.0 | 0.0 | 0.00 | 0.00 | 0.00 | 70 | 1012.8 |
| 20260502035520 | 42 | 236 | 0.0 | 0.0 | 0.00 | 0.00 | 0.05 | 72 | 1012.8 |
| 20260502035023 | 42 | 280 | 0.0 | 0.0 | 0.00 | 0.00 | 0.05 | 74 | 1012.7 |
| 20260502034520 | 42 | 265 | 0.0 | 0.0 | 0.00 | 0.00 | 0.05 | 75 | 1012.8 |
| 20260502034020 | 43 | 254 | 0.0 | 0.0 | 0.00 | 0.00 | 0.05 | 75 | 1012.7 |
| 20260502033519 | 43 | 273 | 0.0 | 0.0 | 0.00 | 0.00 | 0.05 | 75 | 1012.8 |
| 20260502033025 | 43 | 263 | 0.0 | 0.0 | 0.00 | 0.00 | 0.05 | 75 | 1012.7 |
| 20260502032520 | 43 | 266 | 0.0 | 0.0 | 0.00 | 0.00 | 0.05 | 75 | 1012.7 |
| 20260502032025 | 43 | 264 | 0.0 | 0.0 | 0.00 | 0.00 | 0.05 | 75 | 1012.7 |
| 20260502031519 | 43 | 258 | 0.0 | 0.0 | 0.00 | 0.00 | 0.05 | 76 | 1012.7 |
| 20260502031020 | 43 | 269 | 0.0 | 0.0 | 0.00 | 0.00 | 0.05 | 76 | 1012.6 |
| 20260502030518 | 43 | 245 | 0.0 | 0.0 | 0.00 | 0.00 | 0.05 | 77 | 1012.7 |
| 20260502030019 | 43 | 236 | 0.0 | 0.0 | 0.00 | 0.00 | 0.05 | 77 | 1012.7 |
| 20260502025519 | 43 | 265 | 0.0 | 0.0 | 0.00 | 0.00 | 0.05 | 78 | 1012.8 |
| 20260502025019 | 42 | 209 | 0.0 | 0.0 | 0.00 | 0.00 | 0.05 | 78 | 1012.7 |
| 20260502024520 | 42 | 235 | 0.0 | 0.0 | 0.00 | 0.00 | 0.05 | 78 | 1012.8 |
| 20260502024022 | 42 | 186 | 0.0 | 0.0 | 0.00 | 0.00 | 0.05 | 78 | 1012.7 |
| 20260502023518 | 42 | 207 | 0.0 | 0.0 | 0.00 | 0.00 | 0.05 | 78 | 1012.7 |
| 20260502023018 | 42 | 210 | 0.0 | 0.0 | 0.00 | 0.00 | 0.05 | 78 | 1012.7 |
| 20260502022519 | 42 | 185 | 0.0 | 0.0 | 0.00 | 0.00 | 0.05 | 77 | 1012.8 |
| 20260502022018 | 42 | 217 | 0.0 | 0.0 | 0.00 | 0.00 | 0.05 | 77 | 1012.8 |
| 20260502021516 | 42 | 219 | 0.0 | 0.0 | 0.00 | 0.00 | 0.05 | 77 | 1012.7 |
| 20260502021019 | 42 | 221 | 0.0 | 0.0 | 0.00 | 0.00 | 0.05 | 76 | 1012.7 |
| 20260502020516 | 43 | 219 | 0.0 | 0.0 | 0.00 | 0.00 | 0.05 | 76 | 1012.6 |
| 20260502020016 | 43 | 240 | 0.0 | 0.0 | 0.00 | 0.00 | 0.05 | 76 | 1012.6 |
| 20260502015516 | 43 | 267 | 0.0 | 0.0 | 0.00 | 0.00 | 0.05 | 76 | 1012.6 |
| 20260502015017 | 43 | 200 | 0.0 | 0.0 | 0.00 | 0.00 | 0.05 | 76 | 1012.5 |
| 20260502014514 | 43 | 280 | 0.0 | 0.0 | 0.00 | 0.00 | 0.05 | 76 | 1012.5 |
| 20260502014014 | 43 | 246 | 0.0 | 0.0 | 0.00 | 0.00 | 0.05 | 77 | 1012.4 |
| 20260502013514 | 43 | 245 | 0.0 | 0.0 | 0.00 | 0.00 | 0.05 | 77 | 1012.5 |
| 20260502013014 | 43 | 194 | 0.0 | 0.0 | 0.00 | 0.00 | 0.05 | 78 | 1012.4 |
| 20260502012514 | 43 | 267 | 0.0 | 0.0 | 0.00 | 0.00 | 0.05 | 78 | 1012.3 |
| 20260502012013 | 43 | 271 | 0.0 | 0.0 | 0.00 | 0.00 | 0.05 | 78 | 1012.4 |
| 20260502011513 | 43 | 228 | 0.0 | 0.0 | 0.00 | 0.00 | 0.05 | 78 | 1012.3 |
| 20260502011013 | 43 | 229 | 0.0 | 0.0 | 0.00 | 0.00 | 0.05 | 78 | 1012.3 |
| 20260502010513 | 43 | 220 | 0.0 | 0.0 | 0.00 | 0.00 | 0.05 | 79 | 1012.3 |
| 20260502010013 | 43 | 238 | 0.0 | 0.0 | 0.00 | 0.00 | 0.05 | 79 | 1012.2 |
| 20260502005517 | 43 | 263 | 0.0 | 0.0 | 0.00 | 0.00 | 0.05 | 78 | 1012.1 |
| 20260502005017 | 43 | 208 | 0.0 | 0.0 | 0.00 | 0.00 | 0.05 | 78 | 1012.1 |
| 20260502004513 | 43 | 269 | 0.0 | 0.0 | 0.00 | 0.00 | 0.05 | 78 | 1012.0 |
| 20260502004012 | 44 | 256 | 0.0 | 0.0 | 0.00 | 0.00 | 0.05 | 78 | 1012.0 |
| 20260502003512 | 44 | 273 | 0.0 | 0.0 | 0.00 | 0.00 | 0.05 | 78 | 1011.8 |
| 20260502003014 | 44 | 277 | 0.0 | 0.0 | 0.00 | 0.00 | 0.05 | 78 | 1011.7 |
| 20260502002511 | 44 | 242 | 0.0 | 0.0 | 0.00 | 0.00 | 0.05 | 77 | 1011.6 |
| 20260502002012 | 44 | 242 | 0.0 | 0.0 | 0.00 | 0.00 | 0.05 | 77 | 1011.5 |
| 20260502001512 | 44 | 265 | 0.0 | 0.0 | 0.00 | 0.00 | 0.05 | 77 | 1011.4 |
| 20260502001012 | 44 | 208 | 0.0 | 0.0 | 0.00 | 0.00 | 0.05 | 76 | 1011.3 |
| 20260502000511 | 44 | 256 | 0.0 | 0.0 | 0.00 | 0.00 | 0.05 | 76 | 1011.2 |
| 20260502000015 | 45 | 257 | 0.0 | 0.0 | 0.00 | 0.00 | 0.05 | 75 | 1011.2 |
| 20260501235512 | 45 | 257 | 0.0 | 0.0 | 0.00 | 0.00 | 0.05 | 75 | 1011.2 |
| 20260501235011 | 45 | 236 | 0.0 | 0.0 | 0.00 | 0.00 | 0.05 | 75 | 1011.1 |
| 20260501234514 | 45 | 214 | 0.0 | 0.0 | 0.00 | 0.00 | 0.05 | 75 | 1011.1 |
| 20260501234011 | 45 | 211 | 0.0 | 0.0 | 0.00 | 0.00 | 0.05 | 74 | 1011.2 |
| 20260501233511 | 45 | 258 | 0.0 | 0.0 | 0.00 | 0.00 | 0.05 | 74 | 1011.1 |
| 20260501233010 | 45 | 235 | 0.0 | 0.0 | 0.00 | 0.00 | 0.05 | 74 | 1011.0 |
| 20260501232510 | 46 | 257 | 0.0 | 0.0 | 0.00 | 0.00 | 0.05 | 73 | 1011.0 |
| 20260501232010 | 46 | 275 | 0.0 | 0.0 | 0.00 | 0.00 | 0.05 | 72 | 1011.0 |
| 20260501231509 | 46 | 266 | 0.0 | 0.0 | 0.00 | 0.00 | 0.05 | 72 | 1010.9 |
| 20260501231009 | 47 | 234 | 0.0 | 0.0 | 0.00 | 0.00 | 0.05 | 71 | 1010.9 |
| 20260501230512 | 47 | 226 | 0.0 | 0.0 | 0.00 | 0.00 | 0.05 | 71 | 1010.9 |
| 20260501230010 | 47 | 277 | 0.0 | 0.0 | 0.00 | 0.00 | 0.05 | 70 | 1010.8 |
| 20260501225510 | 47 | 265 | 0.0 | 0.0 | 0.00 | 0.00 | 0.05 | 70 | 1010.7 |
| 20260501225010 | 48 | 231 | 0.0 | 0.0 | 0.00 | 0.00 | 0.05 | 69 | 1010.7 |
| 20260501224509 | 48 | 223 | 0.0 | 0.0 | 0.00 | 0.00 | 0.05 | 68 | 1010.8 |
| 20260501224009 | 48 | 223 | 0.0 | 0.0 | 0.00 | 0.00 | 0.05 | 68 | 1010.7 |
| 20260501223509 | 48 | 217 | 0.0 | 0.0 | 0.00 | 0.00 | 0.05 | 70 | 1010.7 |
| 20260501223011 | 48 | 217 | 0.0 | 0.0 | 0.00 | 0.00 | 0.05 | 69 | 1010.7 |
| 20260501222510 | 47 | 181 | 0.0 | 0.0 | 0.00 | 0.00 | 0.05 | 69 | 1010.7 |
| 20260501222008 | 48 | 190 | 0.0 | 0.0 | 0.00 | 0.00 | 0.05 | 68 | 1010.8 |
| 20260501221508 | 48 | 191 | 0.0 | 0.0 | 0.00 | 0.00 | 0.05 | 68 | 1010.7 |
| 20260501221007 | 48 | 191 | 0.0 | 0.0 | 0.00 | 0.00 | 0.05 | 69 | 1010.7 |
| 20260501220506 | 47 | 191 | 0.0 | 0.0 | 0.00 | 0.00 | 0.05 | 70 | 1010.6 |
| 20260501220006 | 47 | 191 | 0.0 | 0.0 | 0.00 | 0.00 | 0.05 | 72 | 1010.6 |
| 20260501215506 | 47 | 191 | 0.0 | 0.0 | 0.00 | 0.00 | 0.05 | 70 | 1010.6 |
| 20260501215006 | 47 | 191 | 0.0 | 0.0 | 0.00 | 0.00 | 0.05 | 69 | 1010.5 |
| 20260501214505 | 47 | 173 | 0.0 | 0.0 | 0.00 | 0.00 | 0.05 | 71 | 1010.5 |
| 20260501214005 | 47 | 185 | 0.0 | 0.0 | 0.00 | 0.00 | 0.05 | 71 | 1010.7 |
| 20260501213504 | 47 | 185 | 0.0 | 0.0 | 0.00 | 0.00 | 0.05 | 71 | 1010.7 |
| 20260501213003 | 47 | 180 | 0.0 | 0.0 | 0.00 | 0.00 | 0.05 | 74 | 1010.6 |
| 20260501212502 | 46 | 180 | 0.0 | 0.0 | 0.00 | 0.00 | 0.05 | 74 | 1010.6 |
| 20260501212003 | 46 | 180 | 0.0 | 0.0 | 0.00 | 0.00 | 0.05 | 74 | 1010.6 |
| 20260501211502 | 46 | 195 | 0.0 | 0.0 | 0.00 | 0.00 | 0.05 | 73 | 1010.6 |
| 20260501211002 | 46 | 167 | 0.0 | 0.0 | 0.00 | 0.00 | 0.05 | 73 | 1010.6 |
| 20260501210503 | 46 | 167 | 0.0 | 0.0 | 0.00 | 0.00 | 0.05 | 74 | 1010.5 |
| 20260501210001 | 46 | 167 | 0.0 | 0.0 | 0.00 | 0.00 | 0.05 | 76 | 1010.4 |
| 20260501205600 | 46 | 186 | 0.0 | 0.0 | 0.00 | 0.00 | 0.05 | 78 | 1010.5 |
| 20260501205100 | 45 | 157 | 0.0 | 0.0 | 0.00 | 0.00 | 0.05 | 77 | 1010.5 |
| 20260501204643 | 45 | 158 | 0.0 | 0.0 | 0.00 | 0.00 | 0.05 | 77 | 1010.5 |
| 20260501204059 | 45 | 131 | 0.0 | 0.0 | 0.00 | 0.00 | 0.05 | 78 | 1010.4 |
| 20260501203600 | 45 | 144 | 0.0 | 0.0 | 0.00 | 0.00 | 0.05 | 79 | 1010.4 |
| 20260501203059 | 45 | 150 | 0.0 | 0.0 | 0.00 | 0.00 | 0.05 | 79 | 1010.3 |
| 20260501202558 | 45 | 144 | 0.0 | 0.0 | 0.00 | 0.00 | 0.05 | 80 | 1010.3 |
| 20260501202059 | 45 | 141 | 0.0 | 0.0 | 0.00 | 0.00 | 0.05 | 81 | 1010.3 |
| 20260501202003 | 45 | 128 | 0.0 | 0.0 | 0.00 | 0.00 | 0.05 | 81 | 1010.4 |
| 20260501201559 | 44 | 155 | 0.0 | 0.0 | 0.00 | 0.00 | 0.05 | 80 | 1010.5 |
| 20260501201056 | 44 | 157 | 0.0 | 0.0 | 0.00 | 0.00 | 0.05 | 82 | 1010.5 |
| 20260501200556 | 44 | 167 | 0.0 | 0.0 | 0.00 | 0.00 | 0.05 | 83 | 1010.5 |
| 20260501200056 | 44 | 155 | 0.0 | 0.0 | 0.00 | 0.00 | 0.05 | 83 | 1010.6 |
| 20260501195555 | 44 | 156 | 0.0 | 0.0 | 0.00 | 0.00 | 0.05 | 83 | 1010.6 |
| 20260501195055 | 44 | 153 | 0.0 | 0.0 | 0.00 | 0.00 | 0.05 | 83 | 1010.7 |
| 20260501194600 | 44 | 138 | 0.0 | 0.0 | 0.00 | 0.00 | 0.05 | 84 | 1010.7 |
| 20260501194053 | 43 | 136 | 0.0 | 0.0 | 0.00 | 0.00 | 0.05 | 84 | 1010.9 |
| 20260501193552 | 43 | 109 | 0.0 | 0.0 | 0.00 | 0.00 | 0.05 | 84 | 1011.1 |
| 20260501193052 | 43 | 105 | 0.0 | 0.0 | 0.00 | 0.00 | 0.05 | 84 | 1011.1 |
| 20260501192555 | 43 | 101 | 0.0 | 0.0 | 0.00 | 0.00 | 0.05 | 86 | 1011.2 |
| 20260501192052 | 44 | 345 | 0.0 | 0.0 | 0.00 | 0.00 | 0.05 | 86 | 1011.2 |
| 20260501191551 | 44 | 345 | 0.0 | 0.0 | 0.00 | 0.00 | 0.05 | 88 | 1011.2 |
| 20260501191051 | 43 | 345 | 0.0 | 0.0 | 0.00 | 0.00 | 0.05 | 87 | 1011.2 |
| 20260501190551 | 43 | 345 | 0.0 | 0.0 | 0.00 | 0.00 | 0.05 | 88 | 1011.3 |
| 20260501190051 | 43 | 17 | 0.0 | 0.0 | 0.00 | 0.00 | 0.05 | 88 | 1011.3 |
| 20260501185551 | 43 | 16 | 0.0 | 0.0 | 0.00 | 0.00 | 0.05 | 88 | 1011.4 |
| 20260501185049 | 43 | 313 | 0.0 | 0.0 | 0.00 | 0.00 | 0.04 | 88 | 1011.5 |
| 20260501184549 | 43 | 304 | 0.0 | 0.0 | 0.00 | 0.00 | 0.04 | 87 | 1011.6 |
| 20260501184051 | 43 | 304 | 0.0 | 0.0 | 0.00 | 0.00 | 0.04 | 87 | 1011.6 |
| 20260501183548 | 43 | 334 | 0.0 | 0.0 | 0.00 | 0.00 | 0.04 | 87 | 1011.6 |
| 20260501183051 | 42 | 334 | 0.0 | 0.0 | 0.00 | 0.00 | 0.04 | 87 | 1011.7 |
| 20260501182553 | 42 | 5 | 0.0 | 0.0 | 0.00 | 0.00 | 0.04 | 87 | 1011.7 |
| 20260501182047 | 42 | 9 | 0.0 | 0.0 | 0.00 | 0.00 | 0.04 | 87 | 1011.7 |
| 20260501181552 | 42 | 343 | 0.0 | 0.0 | 0.00 | 0.00 | 0.04 | 87 | 1011.7 |
| 20260501181050 | 42 | 340 | 0.0 | 0.0 | 0.00 | 0.00 | 0.04 | 87 | 1011.7 |
| 20260501180548 | 42 | 333 | 0.0 | 0.0 | 0.00 | 0.00 | 0.04 | 87 | 1011.8 |
| 20260501180047 | 42 | 335 | 0.0 | 0.0 | 0.00 | 0.00 | 0.04 | 86 | 1011.7 |
| 20260501175547 | 42 | 335 | 0.0 | 0.0 | 0.00 | 0.00 | 0.04 | 86 | 1011.7 |
| 20260501175046 | 42 | 355 | 0.0 | 0.0 | 0.00 | 0.00 | 0.04 | 86 | 1011.8 |
| 20260501174546 | 42 | 324 | 0.0 | 0.0 | 0.00 | 0.00 | 0.04 | 86 | 1011.7 |
| 20260501174047 | 42 | 324 | 0.0 | 0.0 | 0.00 | 0.00 | 0.04 | 85 | 1011.7 |
| 20260501173546 | 42 | 317 | 0.0 | 0.0 | 0.00 | 0.00 | 0.04 | 85 | 1011.7 |
| 20260501173052 | 42 | 309 | 0.0 | 0.0 | 0.00 | 0.00 | 0.04 | 85 | 1011.7 |
| 20260501172545 | 42 | 221 | 0.0 | 0.0 | 0.00 | 0.00 | 0.04 | 85 | 1011.7 |
| 20260501172047 | 42 | 220 | 0.0 | 0.0 | 0.00 | 0.00 | 0.04 | 85 | 1011.8 |
| 20260501171546 | 42 | 219 | 0.0 | 0.0 | 0.00 | 0.00 | 0.04 | 85 | 1011.8 |